Weather History for New River MCAS, NC

Change the Weather History Date:

Tuesday, May 7, 2013

  Actual Average Record
Temperature  
Mean Temperature 63 °F -  
Max Temperature 72 °F 77 °F 90 °F (2004)
Min Temperature 54 °F 55 °F 45 °F (2005)
Degree Days  
Heating Degree Days 2    
Growing Degree Days 13 (Base 50)    
Moisture  
Dew Point 53 °F    
Average Humidity 80    
Maximum Humidity 100    
Minimum Humidity 44    
Precipitation  
Precipitation 0.01 in - - ()
Sea Level Pressure  
Sea Level Pressure 29.92 in    
Wind  
Wind Speed 3 mph (South)    
Max Wind Speed 16 mph    
Max Gust Speed 21 mph    
Visibility 8 miles    
Events Fog , Rain    
Averages and records for this station are not official NWS values.
T = Trace of Precipitation, MM = Missing Value Source: NWS Daily Summary

Daily Weather History Graph

Daily Weather History Graph

Search for Another Location

Airport:

Trip Planner

Search our weather history database for the weather conditions in past years. The results will help you decide how hot, cold, wet, or windy it might be!

Date:

Astronomy

May. 07, 2013 Rise Set
Actual Time 6:13 AM EDT 7:59 PM EDT
Civil Twilight 5:45 AM EDT 8:27 PM EDT
Nautical Twilight 5:12 AM EDT 9:00 PM EDT
Astronomical Twilight 4:37 AM EDT 9:35 PM EDT
Moon 4:40 AM EDT (5/7) 6:01 PM EDT (5/7)
Length of Visible Light 14h 41m
Length of Day
13h 46m
Waning Crescent, 5% of the Moon is Illuminated
May 7
Waning Crescent
May 9
New
May 18
First Quarter
May 25
Full
May 31
Last Quarter

Hourly Weather History & Observations

Time (EDT) Temp. Dew Point Humidity Pressure Visibility Wind Dir Wind Speed Gust Speed Precip Events Conditions
1:56 AM 59.0 °F 57.9 °F 96% 29.90 in 9.0 mi Calm Calm - N/A   Clear
2:34 AM 57.2 °F 57.2 °F 100% 29.89 in 1.8 mi Calm Calm - N/A   Clear
2:44 AM 55.4 °F 55.4 °F 100% 29.88 in 3.0 mi South 3.5 mph - N/A   Clear
2:54 AM 55.4 °F 55.4 °F 100% 29.88 in 1.5 mi Calm Calm - N/A   Clear
2:56 AM 55.0 °F 55.0 °F 100% 29.89 in 1.0 mi Calm Calm - N/A   Clear
3:09 AM 55.4 °F 55.4 °F 100% 29.88 in 0.5 mi SSW 3.5 mph - N/A Fog Fog
3:13 AM 55.4 °F 55.4 °F 100% 29.88 in 1.0 mi SSW 3.5 mph - N/A   Clear
3:15 AM 55.4 °F 55.4 °F 100% 29.88 in 2.5 mi SSW 3.5 mph - N/A   Clear
3:22 AM 55.4 °F 55.4 °F 100% 29.88 in 9.0 mi SSW 4.6 mph - N/A   Clear
3:56 AM 57.0 °F 54.0 °F 89% 29.89 in 10.0 mi SSW 3.5 mph - N/A   Clear
4:56 AM 55.9 °F 54.0 °F 93% 29.89 in 10.0 mi South 3.5 mph - N/A   Clear
5:56 AM 55.0 °F 54.0 °F 96% 29.90 in 10.0 mi Calm Calm - N/A   Clear
6:56 AM 55.0 °F 54.0 °F 96% 29.92 in 9.0 mi Calm Calm - N/A   Scattered Clouds
7:56 AM 57.0 °F 55.0 °F 93% 29.94 in 10.0 mi Calm Calm - N/A   Mostly Cloudy
8:56 AM 61.0 °F 55.0 °F 81% 29.94 in 10.0 mi Calm Calm - N/A   Scattered Clouds
9:56 AM 63.0 °F 55.9 °F 78% 29.96 in 10.0 mi SSW 3.5 mph - N/A   Scattered Clouds
10:56 AM 64.9 °F 54.0 °F 68% 29.96 in 10.0 mi South 3.5 mph - N/A   Mostly Cloudy
11:56 AM 68.0 °F 51.1 °F 55% 29.97 in 10.0 mi Calm Calm - N/A   Mostly Cloudy
12:56 PM 71.1 °F 48.0 °F 44% 29.95 in 10.0 mi SSW 9.2 mph - N/A   Mostly Cloudy
1:56 PM 69.1 °F 48.9 °F 49% 29.94 in 10.0 mi South 9.2 mph 17.3 mph N/A   Mostly Cloudy
2:56 PM 66.9 °F 52.0 °F 59% 29.93 in 6.0 mi SSE 11.5 mph - 0.01 in Rain Light Rain
3:56 PM 71.1 °F 50.0 °F 47% 29.92 in 10.0 mi South 10.4 mph - 0.00 in   Partly Cloudy
4:56 PM 70.0 °F 48.9 °F 47% 29.92 in 10.0 mi South 16.1 mph 20.7 mph N/A   Partly Cloudy
5:56 PM 68.0 °F 50.0 °F 52% 29.92 in 10.0 mi SSE 12.7 mph - N/A   Clear
6:56 PM 64.9 °F 51.1 °F 61% 29.93 in 10.0 mi South 9.2 mph - N/A   Clear
7:56 PM 62.1 °F 51.1 °F 67% 29.95 in 10.0 mi South 9.2 mph - N/A   Clear
8:56 PM 60.1 °F 53.1 °F 78% 29.96 in 10.0 mi South 5.8 mph - N/A   Clear
9:56 PM 59.0 °F 53.1 °F 81% 29.98 in 10.0 mi Calm Calm - N/A   Clear
10:56 PM 57.0 °F 53.1 °F 87% 29.99 in 10.0 mi Calm Calm - N/A   Clear
11:56 PM 54.0 °F 53.1 °F 97% 29.99 in 10.0 mi WNW 3.5 mph - N/A   Clear